Regional Weather Roundup
Issued by NWS Upton, NY

Current Version | Previous Version | Text Only | Print | Product List | Glossary Off
Versions: 1 2 3 4 5 6 7 8 9 10 11 12 13 14 15 16 17 18 19 20 21 22 23 24 25 26 27 28 29 30 31 32 33 34 35 36 37 38 39 40 41 42 43 44 45 46 47 48 49 50
000 ASUS41 KOKX 312004 RWROKX REGIONAL WEATHER ROUNDUP NATIONAL WEATHER SERVICE NEW YORK NY 400 PM EDT MON AUG 31 2015 NOTE: "FAIR" INDICATES FEW OR NO CLOUDS BELOW 12,000 FEET WITH NO SIGNIFICANT WEATHER AND/OR OBSTRUCTIONS TO VISIBILITY. NYZ071-072-176-178-NJZ106-104-312100- NEW YORK CITY METRO AREA CITY SKY/WX TMP DP RH WIND PRES REMARKS CENTRAL PARK MOSUNNY 91 64 40 VRB5 29.98F HX 92 LAGUARDIA APRT PTSUNNY 91 63 39 W15 29.94F HX 92 KENNEDY INTL PTSUNNY 89 67 47 SW15G23 29.96F HX 92 NEWARK/LIBERTY PTSUNNY 92 63 38 W13G21 29.95F HX 93 BRNX BOT. GARD N/A 88 64 45 W10 29.95F TETERBORO PTSUNNY 90 64 42 W10G22 29.93F HX 91 $$ NYZ177-179-078>081-312100- LONG ISLAND NEW YORK CITY SKY/WX TMP DP RH WIND PRES REMARKS FARMINGDALE PTSUNNY 88 66 48 SW13 29.96S HX 90 ISLIP CLOUDY 86 68 54 SW13 29.94F SHIRLEY PTSUNNY 85 68 56 SW13 29.96F WESTHAMPTON PTSUNNY 84 68 58 SW16 29.96F MONTAUK POINT N/A 87 69 54 SW8G16 29.94F HX 91 $$ NYZ052-065-067-312100- HUDSON VALLEY CITY SKY/WX TMP DP RH WIND PRES REMARKS WHITE PLAINS PTSUNNY 88 63 43 W10G18 29.95F NEWBURGH MOSUNNY 88 70 55 W12G21 29.97F HX 92 MONTGOMERY MOSUNNY 89 67 47 W12 29.95F HX 92 POUGHKEEPSIE MOSUNNY 90 64 42 W13G22 29.93F HX 91 ALBANY MOSUNNY 85 64 49 NW14 29.93F $$ NJZ001-105-106-008-010-013-015-019>022-104-312100- NEW JERSEY CITY SKY/WX TMP DP RH WIND PRES REMARKS NEWARK/LIBERTY PTSUNNY 92 63 38 W13G21 29.95F HX 93 TETERBORO PTSUNNY 90 64 42 W10G22 29.93F HX 91 CALDWELL MOSUNNY 90 65 43 W8 29.95F HX 92 MORRISTOWN PTSUNNY 90 66 45 W8G16 29.97F HX 92 SOMERVILLE MOSUNNY 91 66 43 W8 29.95F HX 93 SUSSEX MOSUNNY 88 66 48 SW6 29.97F HX 90 ANDOVER N/A 87 69 54 CALM 29.99F HX 91 TRENTON PTSUNNY 89 66 46 SW12 29.98F HX 91 MILLVILLE CLOUDY 84 67 56 VRB5 30.03S ATLANTIC CITY PTSUNNY 88 64 44 SW8G18 30.01F WRIGHTSTOWN PTSUNNY 87 68 53 W12 29.96F HX 91 TOMS RIVER PTSUNNY 90 66 45 W9 29.99F HX 92 BELMAR PTSUNNY 88 66 48 W9 29.99F HX 90 $$ PAZ047>061-062-071-312100- EASTERN PENNSYLVANIA CITY SKY/WX TMP DP RH WIND PRES REMARKS PHILADELPHIA PTSUNNY 88 68 51 SW13 30.00F HX 91 ALLENTOWN MOSUNNY 90 66 45 W13G21 29.99F HX 92 SCRANTON MOSUNNY 76 76 100 CALM 30.01F $$ CTZ002-004>006-009-010-012-RIZ004-006-007-MAZ004-011-015-312100- SOUTHERN NEW ENGLAND IN CT CITY SKY/WX TMP DP RH WIND PRES REMARKS BRADLEY INTL PTSUNNY 89 64 43 NW10 29.91F HX 90 HARTFORD MOSUNNY 89 65 44 W8G22 29.91F HX 91 DANBURY MOSUNNY 88 64 44 VRB7 29.96F WTRBRY/OXFORD MOSUNNY 84 64 51 W8G17 29.98F BRIDGEPORT PTSUNNY 85 70 60 SW13 29.93F MERIDEN PTSUNNY 87 64 46 W9 29.93F NEW HAVEN PTSUNNY 84 68 58 SW9G17 29.93F CHESTER NOT AVBL GROTON PTSUNNY 84 70 62 SW14 29.91F WILLIMANTIC PTSUNNY 87 66 49 W9G17 29.92F IN RI CITY SKY/WX TMP DP RH WIND PRES REMARKS PROVIDENCE PTSUNNY 86 65 49 W12 29.91F BLOCK ISLAND PTSUNNY 81 70 69 SW14 29.94S WESTERLY PTSUNNY 84 67 56 SW12G22 29.92F IN MA CITY SKY/WX TMP DP RH WIND PRES REMARKS BOSTON PTSUNNY 88 63 43 W15G23 29.87F WORCESTER MOSUNNY 83 62 49 W12 29.94F WESTFIELD SUNNY 88 63 43 W16 29.91F PROVINCETOWN N/A 82 66 57 SW14 29.87F NANTUCKET MOSUNNY 77 69 76 SW17G24 29.91F $$ ANZ330-335-338-340-345-350-353-355-312100- COASTAL MARINE OBSERVATIONS STATION/POSITION TIME SKY/WX TEMP WIND PRES VSBY WAVE AIR SEA DIR/SP/G HT/PER (UTC) (F) (DEG/KT/KT) (MB) (MI) (FT/S) NY HARB ENTRANCE 1850 78 77 210/ 8/ 8 1015.4 2/10 4S FIRE IS NOT AVBL 20S FIRE ISLAND 1850 76 75 240/ 10/ 12 1015.6 3/ 5 GREAT SOUTH BAY 1930 78 78 240/ 12/ 17 N/A 23SW MTP 1950 75 72 240/ 14/ 16 1013.8 4/10 HUDSON CANYON NOT AVBL KINGS POINT 1900 85 74 280/ 10/ 13 1014.0 EXECUTION ROCKS 1900 84 240/ 8/ 12 N/A CENTRAL LI SOUND NOT AVBL EASTERN LI SOUND 1900 76 70 250/ 12/ 14 N/A ROBBINS REEF 1900 87 290/ 13/ 16 1013.6 $$ >>>>>>>>>>>>>>>>>>>>>>>>>>>> KEY <<<<<<<<<<<<<<<<<<<<<<<<<<< > < > SKY/WX - SKY CONDITION/PRESENT WEATHER < > TMP - TEMPERATURE IN FAHRENHEIT < > DP - DEWPOINT IN FAHRENHEIT < > RH - RELATIVE HUMIDITY IN PERCENT < > WIND - DIRECTION AND SPEED IN MPH < > PRES - MEAN SEA LEVEL PRESSURE IN INCHES OF HG < > WCI - WIND CHILL INDEX < > VSB - VISIBILITY IN MILES < > HX - HEAT INDEX < > TC - TEMPERATURE IN CELSIUS < > VRB - VARIABLE WIND DIRECTION < > < >>>>>>>>>>>>>>>>>>>>>>>>>>>> KEY <<<<<<<<<<<<<<<<<<<<<<<<<<<

USA.gov is the U.S. government's official web portal to all federal, state and local government web resources and services.